Location: Kudlacze
(49.7800°N, 20.0200°E)
Time: 11:16:32
(UTC+00:00)

Envisat - Pass Details

Date: 01 October 2021
Orbit: 764 x 766 km, 98.2° (Epoch: 20 October)

Event Time Altitude Azimuth Distance (km) Brightness Sun altitude
Rises 03:32:03 0° 17° (NNE) 3,244 6.6 -11.7°
Reaches altitude 10° 03:34:26 10° 23° (NNE) 2,313 5.9 -11.4°
Maximum altitude 03:39:24 51° 99° (E) 960 4.0 -10.6°
Drops below altitude 10° 03:44:20 10° 176° (S) 2,295 5.5 -9.8°
Sets 03:46:41 0° 181° (S) 3,217 6.2 -9.4°
